• In Hungary
  • List of Countries
  • For 7 days
  • Water Temperature
  • Satellite Maps
  • Weather Map
  • News
  • Weather Widgets
  • user-avatar
    Login

    Hourly Weather Kudrino

    Today, 22 July, Sunday

    Time Temperature Precipitation Wind Pressure Humidity
    00:00 +19°C° 0 mm 3 mps 741 mmHg 96%
    01:00 +19°C° 0 mm 3 mps 741 mmHg 97%
    02:00 +18°C° 0 mm 3 mps 741 mmHg 97%
    03:00 +18°C° 0 mm 3 mps 741 mmHg 97%
    04:00 +18°C° 0 mm 3 mps 742 mmHg 96%
    05:00 +18°C° 0 mm 3 mps 742 mmHg 95%
    06:00 +19°C° 0 mm 3 mps 742 mmHg 93%
    07:00 +19°C° 0 mm 3 mps 742 mmHg 90%
    08:00 +20°C° 0 mm 4 mps 742 mmHg 87%
    09:00 +21°C° 0 mm 4 mps 742 mmHg 83%
    10:00 +22°C° 0 mm 4 mps 742 mmHg 79%
    11:00 +23°C° 0 mm 4 mps 742 mmHg 75%
    12:00 +23°C° 0.1 mm 4 mps 742 mmHg 74%
    13:00 +25°C° 0.1 mm 4 mps 742 mmHg 72%
    14:00 +25°C° 0.1 mm 4 mps 742 mmHg 70%
    15:00 +25°C° 0.3 mm 4 mps 742 mmHg 74%
    16:00 +24°C° 0.3 mm 3 mps 742 mmHg 77%
    17:00 +24°C° 0.3 mm 3 mps 742 mmHg 80%
    18:00 +23°C° 0.1 mm 2 mps 742 mmHg 84%
    19:00 +20°C° 0.1 mm 2 mps 742 mmHg 88%
    20:00 +19°C° 0.1 mm 2 mps 742 mmHg 93%
    21:00 +19°C° 0 mm 2 mps 743 mmHg 94%
    22:00 +18°C° 0 mm 2 mps 743 mmHg 95%
    23:00 +18°C° 0 mm 2 mps 743 mmHg 96%

    Tomorrow, 23 July, Monday

    Time Temperature Precipitation Wind Pressure Humidity
    00:00 +17°C° 0 mm 2 mps 743 mmHg 96%
    01:00 +17°C° 0 mm 2 mps 743 mmHg 96%
    02:00 +16°C° 0 mm 2 mps 743 mmHg 96%
    03:00 +16°C° 0 mm 2 mps 744 mmHg 95%
    04:00 +16°C° 0 mm 2 mps 744 mmHg 95%
    05:00 +16°C° 0 mm 3 mps 744 mmHg 94%
    06:00 +18°C° 0 mm 3 mps 744 mmHg 87%
    07:00 +19°C° 0 mm 3 mps 744 mmHg 81%
    08:00 +20°C° 0 mm 4 mps 744 mmHg 74%
    09:00 +21°C° 0 mm 4 mps 744 mmHg 69%
    10:00 +22°C° 0 mm 4 mps 744 mmHg 63%
    11:00 +23°C° 0 mm 4 mps 744 mmHg 58%
    12:00 +23°C° 0 mm 4 mps 744 mmHg 59%
    13:00 +24°C° 0 mm 3 mps 744 mmHg 61%
    14:00 +24°C° 0 mm 3 mps 744 mmHg 62%
    15:00 +24°C° 0 mm 3 mps 744 mmHg 64%
    16:00 +22°C° 0 mm 3 mps 744 mmHg 66%
    17:00 +22°C° 0 mm 3 mps 744 mmHg 68%
    18:00 +20°C° 0 mm 3 mps 744 mmHg 73%
    19:00 +19°C° 0 mm 3 mps 744 mmHg 78%
    20:00 +18°C° 0 mm 3 mps 744 mmHg 83%
    21:00 +16°C° 0 mm 2 mps 744 mmHg 86%
    22:00 +15°C° 0 mm 2 mps 745 mmHg 90%
    23:00 +14°C° 0 mm 2 mps 745 mmHg 93%

    Day after tomorrow, 24 July, Tuesday

    Time Temperature Precipitation Wind Pressure Humidity
    00:00 +14°C° 0 mm 2 mps 745 mmHg 93%
    01:00 +14°C° 0 mm 2 mps 745 mmHg 93%
    02:00 +14°C° 0 mm 2 mps 745 mmHg 93%
    03:00 +14°C° 0 mm 2 mps 745 mmHg 90%
    04:00 +14°C° 0 mm 3 mps 745 mmHg 88%
    05:00 +14°C° 0 mm 3 mps 745 mmHg 86%
    06:00 +16°C° 0 mm 3 mps 745 mmHg 85%
    07:00 +17°C° 0 mm 3 mps 745 mmHg 83%
    08:00 +17°C° 0 mm 3 mps 745 mmHg 82%
    09:00 +18°C° 0 mm 3 mps 745 mmHg 80%
    10:00 +19°C° 0 mm 3 mps 745 mmHg 77%
    11:00 +20°C° 0 mm 3 mps 745 mmHg 75%
    12:00 +20°C° 0 mm 3 mps 745 mmHg 76%
    13:00 +21°C° 0 mm 3 mps 745 mmHg 76%
    14:00 +21°C° 0 mm 3 mps 745 mmHg 76%
    15:00 +21°C° 0.1 mm 3 mps 745 mmHg 76%
    16:00 +22°C° 0.1 mm 3 mps 745 mmHg 76%
    17:00 +24°C° 0.1 mm 3 mps 746 mmHg 76%
    18:00 +21°C° 0 mm 3 mps 746 mmHg 81%
    19:00 +20°C° 0 mm 3 mps 746 mmHg 85%
    20:00 +19°C° 0 mm 2 mps 746 mmHg 90%
    21:00 +19°C° 0.1 mm 2 mps 746 mmHg 92%
    22:00 +18°C° 0.1 mm 2 mps 746 mmHg 94%
    23:00 +18°C° 0.1 mm 2 mps 746 mmHg 95%

    25 July, Wednesday

    Time Temperature Precipitation Wind Pressure Humidity
    00:00 +17°C° 0.1 mm 2 mps 746 mmHg 96%
    01:00 +17°C° 0.1 mm 2 mps 746 mmHg 97%
    02:00 +17°C° 0.1 mm 2 mps 746 mmHg 98%
    03:00 +17°C° 0.1 mm 2 mps 746 mmHg 97%
    04:00 +18°C° 0.1 mm 2 mps 746 mmHg 97%
    05:00 +18°C° 0.1 mm 2 mps 747 mmHg 97%
    06:00 +19°C° 0 mm 3 mps 747 mmHg 93%
    07:00 +21°C° 0 mm 3 mps 747 mmHg 89%
    08:00 +22°C° 0 mm 3 mps 747 mmHg 84%
    09:00 +24°C° 0.3 mm 3 mps 747 mmHg 79%
    10:00 +25°C° 0.3 mm 3 mps 747 mmHg 74%
    11:00 +26°C° 0.3 mm 4 mps 747 mmHg 69%
    12:00 +27°C° 0.2 mm 4 mps 747 mmHg 65%
    13:00 +28°C° 0.2 mm 4 mps 747 mmHg 60%
    14:00 +28°C° 0.2 mm 4 mps 747 mmHg 56%
    15:00 +28°C° 0 mm 4 mps 747 mmHg 57%
    16:00 +28°C° 0 mm 3 mps 747 mmHg 58%
    17:00 +28°C° 0 mm 3 mps 747 mmHg 59%
    18:00 +26°C° 0 mm 3 mps 747 mmHg 66%
    19:00 +24°C° 0 mm 3 mps 747 mmHg 72%
    20:00 +21°C° 0 mm 2 mps 747 mmHg 78%
    21:00 +20°C° 0 mm 2 mps 748 mmHg 81%
    22:00 +19°C° 0 mm 2 mps 748 mmHg 83%
    23:00 +19°C° 0 mm 2 mps 748 mmHg 86%

    26 July, Thursday

    Time Temperature Precipitation Wind Pressure Humidity
    00:00 +18°C° 0 mm 2 mps 748 mmHg 86%
    01:00 +17°C° 0 mm 2 mps 748 mmHg 87%
    02:00 +17°C° 0 mm 2 mps 749 mmHg 88%
    03:00 +17°C° 0 mm 2 mps 749 mmHg 85%
    04:00 +17°C° 0 mm 2 mps 749 mmHg 83%
    05:00 +18°C° 0 mm 2 mps 749 mmHg 81%
    06:00 +20°C° 0 mm 2 mps 750 mmHg 75%
    07:00 +23°C° 0 mm 2 mps 750 mmHg 69%
    08:00 +25°C° 0 mm 2 mps 750 mmHg 63%
    09:00 +26°C° 0 mm 3 mps 750 mmHg 58%
    10:00 +27°C° 0 mm 3 mps 750 mmHg 53%
    11:00 +29°C° 0 mm 4 mps 750 mmHg 48%
    12:00 +29°C° 0.1 mm 4 mps 750 mmHg 49%
    13:00 +29°C° 0.1 mm 4 mps 750 mmHg 50%
    14:00 +30°C° 0.1 mm 4 mps 750 mmHg 51%
    15:00 +29°C° 0.4 mm 4 mps 750 mmHg 56%
    16:00 +28°C° 0.4 mm 3 mps 750 mmHg 61%
    17:00 +28°C° 0.4 mm 2 mps 750 mmHg 66%
    18:00 +26°C° 0.1 mm 2 mps 750 mmHg 72%
    19:00 +25°C° 0.1 mm 2 mps 750 mmHg 77%
    20:00 +23°C° 0.1 mm 2 mps 750 mmHg 83%
    21:00 +22°C° 0.4 mm 3 mps 751 mmHg 85%
    22:00 +21°C° 0.4 mm 3 mps 751 mmHg 87%
    23:00 +20°C° 0.4 mm 3 mps 751 mmHg 88%

    27 July, Friday

    Time Temperature Precipitation Wind Pressure Humidity
    00:00 +20°C° 0 mm 2 mps 751 mmHg 90%
    01:00 +19°C° 0 mm 2 mps 752 mmHg 91%
    02:00 +19°C° 0 mm 2 mps 752 mmHg 92%
    03:00 +19°C° 0.1 mm 2 mps 752 mmHg 92%
    04:00 +19°C° 0.1 mm 2 mps 752 mmHg 92%
    05:00 +19°C° 0.1 mm 2 mps 753 mmHg 92%
    06:00 +21°C° 0 mm 2 mps 753 mmHg 86%
    07:00 +24°C° 0 mm 2 mps 753 mmHg 81%
    08:00 +26°C° 0 mm 2 mps 753 mmHg 75%
    09:00 +28°C° 0.1 mm 2 mps 754 mmHg 68%
    10:00 +29°C° 0.1 mm 3 mps 754 mmHg 60%
    11:00 +31°C° 0.1 mm 3 mps 754 mmHg 53%
    12:00 +31°C° 0 mm 3 mps 754 mmHg 52%
    13:00 +31°C° 0 mm 3 mps 754 mmHg 50%
    14:00 +33°C° 0 mm 3 mps 754 mmHg 49%
    15:00 +31°C° 0 mm 2 mps 754 mmHg 52%
    16:00 +31°C° 0 mm 2 mps 754 mmHg 55%
    17:00 +31°C° 0 mm 2 mps 754 mmHg 57%
    18:00 +29°C° 0 mm 2 mps 754 mmHg 64%
    19:00 +27°C° 0 mm 2 mps 754 mmHg 70%
    20:00 +24°C° 0 mm 2 mps 754 mmHg 76%
    21:00 +24°C° 0 mm 1 mps 754 mmHg 77%
    22:00 +23°C° 0 mm 1 mps 754 mmHg 79%
    23:00 +22°C° 0 mm 1 mps 754 mmHg 81%
    Show more